Flag for Canada Weather past 2 weeks in Belleville, Ontario, Canada

Now
46 °F

Partly sunny.


Feels Like: 42 °F
Forecast: 42 / 57 °F
Wind: 9 mph from North

Location: Trenton

Current Time: May 22, 2015 at 9:13:14 AM

Latest Report: May 22, 2015 at 8:00 AM


Visibility: 15 mi

Pressure: 29.97 "Hg

Humidity: 66%

Dew point: 36 °F

Location of BellevilleLocation

Historic Weather in Belleville — Graph

°F

Belleville temperature yesterday

Maximum temperature yesterday: 63 °F (at 6:00 PM)
Minimum temperature yesterday: 46 °F (at 1:00 AM)
Average temperature yesterday: 54 °F

Past Weeks' High & Low Weather Summary

 TemperatureHumidityPressure
High84 °F (May 9, 4:00 PM)100% (May 8, 1:00 AM)30.47 "Hg (May 8, 1:00 AM)
Low39 °F (May 14, 5:00 AM)28% (May 20, 8:00 PM)29.72 "Hg (May 12, 5:00 AM)
Average60 °F71%30.04 "Hg
* Reported May 7 8:00 AM — May 22 8:00 AM, Belleville, Weather by CustomWeather, © 2015

Note: Actual official high and low records may vary slightly from our data, if they occured in-between our weather recording intervals... More about our weather records

Advertising

Belleville weather history for previous 24 hours

 ConditionsComfort  
Time TempWeatherWind HumidityBarometerVisibility
8:00 AM
Fri, May 22
46 °FPartly sunny.9 mph66%29.97 "Hg15 mi
7:00 AM45 °FPassing clouds.7 mph71%29.95 "Hg15 mi
6:00 AM41 °FPassing clouds.6 mph81%29.92 "Hg15 mi
5:00 AM45 °FPassing clouds.7 mph71%29.88 "Hg15 mi
4:00 AM48 °FPassing clouds.9 mph71%29.85 "Hg15 mi
3:00 AM48 °FPassing clouds.7 mph71%29.82 "Hg15 mi
2:00 AM50 °FPassing clouds.9 mph67%29.82 "Hg15 mi
1:00 AM52 °FPartly cloudy.14 mph62%29.82 "Hg15 mi
12:00 AM54 °FPartly cloudy.14 mph63%29.83 "Hg15 mi
11:00 PM
Thu, May 21
54 °FPassing clouds.10 mph58%29.83 "Hg15 mi
10:00 PM55 °FPassing clouds.13 mph47%29.84 "Hg15 mi
9:00 PM57 °FPartly sunny.16 mph44%29.83 "Hg15 mi
8:00 PM61 °FPartly sunny.14 mph42%29.82 "Hg15 mi
7:00 PM63 °FPartly sunny.14 mph37%29.81 "Hg15 mi
6:00 PM63 °FPartly sunny.14 mph37%29.82 "Hg15 mi
5:00 PM61 °FPartly sunny.14 mph39%29.83 "Hg15 mi
4:00 PM61 °FScattered clouds.17 mph36%29.84 "Hg15 mi
3:00 PM61 °FPassing clouds.14 mph42%29.86 "Hg15 mi
2:00 PM61 °FPassing clouds.14 mph36%29.88 "Hg15 mi
1:00 PM59 °FPassing clouds.17 mph39%29.90 "Hg15 mi
12:00 PM59 °FSunny.14 mph39%29.91 "Hg15 mi
11:00 AM57 °FPassing clouds.14 mph48%29.92 "Hg15 mi
10:00 AM55 °FPassing clouds.10 mph51%29.93 "Hg15 mi
9:00 AM52 °FPartly sunny.12 mph62%29.96 "Hg15 mi
Weather by CustomWeather, © 2015

See weather overviewHow to use our weather pages